FW0864 Weather Reports


Display with metric or nautical units.
time (UTC)temp
F
wind
direction
speed
MPH
gust
MPH
rain 1hr
in
rain 24hr
in
rain mn
in
humidity
%
barometer
mb
20260505223554 67 282 4.0 15.0 0.00 0.00 0.00 61 1012.2
20260505223058 67 245 8.0 15.0 0.00 0.00 0.00 60 1012.3
20260505222554 66 284 4.0 9.0 0.00 0.00 0.00 60 1012.2
20260505222054 67 282 4.0 13.0 0.00 0.00 0.00 60 1012.2
20260505221555 67 275 5.0 13.0 0.00 0.00 0.00 61 1012.3
20260505221053 66 297 8.0 13.0 0.00 0.00 0.00 59 1012.4
20260505220553 67 277 3.0 15.0 0.00 0.00 0.00 60 1012.3
20260505220052 67 256 5.0 13.0 0.00 0.00 0.00 60 1012.3
20260505215551 66 316 8.0 12.0 0.00 0.00 0.00 60 1012.3
20260505215051 66 266 6.0 12.0 0.00 0.00 0.00 59 1012.3
20260505214601 66 301 5.0 12.0 0.00 0.00 0.00 60 1012.3
20260505214050 66 272 5.0 14.0 0.00 0.00 0.00 60 1012.4
20260505213549 66 251 5.0 14.0 0.00 0.00 0.00 61 1012.5
20260505213056 66 318 4.0 11.0 0.00 0.00 0.00 61 1012.5
20260505212548 65 342 4.0 11.0 0.00 0.00 0.00 62 1012.5
20260505212048 65 272 7.0 12.0 0.00 0.00 0.00 62 1012.5
20260505211548 65 312 5.0 13.0 0.00 0.00 0.00 62 1012.5
20260505211050 65 339 5.0 13.0 0.00 0.00 0.00 61 1012.5
20260505210547 65 233 3.0 6.0 0.00 0.00 0.00 62 1012.5
20260505210049 64 265 2.0 11.0 0.00 0.00 0.00 63 1012.6
20260505205546 64 312 5.0 11.0 0.00 0.00 0.00 62 1012.6
20260505205047 64 279 4.0 11.0 0.00 0.00 0.00 62 1012.7
20260505204545 64 4 5.0 14.0 0.00 0.00 0.00 62 1012.7
20260505204045 64 29 3.0 14.0 0.00 0.00 0.00 63 1012.7
20260505203545 64 287 5.0 11.0 0.00 0.00 0.00 62 1012.7
20260505203048 64 274 5.0 13.0 0.00 0.00 0.00 63 1012.8
20260505202543 64 300 3.0 13.0 0.00 0.00 0.00 63 1012.7
20260505202047 64 322 7.0 14.0 0.00 0.00 0.00 63 1012.8
20260505201550 63 243 7.0 14.0 0.00 0.00 0.00 64 1012.7
20260505201042 63 259 4.0 10.0 0.00 0.00 0.00 62 1012.9
20260505200540 63 295 2.0 12.0 0.00 0.00 0.00 64 1012.9
20260505200041 63 303 4.0 12.0 0.00 0.00 0.00 65 1012.9
20260505195539 63 321 5.0 12.0 0.00 0.00 0.00 65 1012.9
20260505195041 63 255 5.0 11.0 0.00 0.00 0.00 66 1012.9
20260505194540 62 266 5.0 12.0 0.00 0.00 0.00 66 1013.0
20260505194038 62 337 4.0 10.0 0.00 0.00 0.00 67 1013.0
20260505193541 62 306 5.0 12.0 0.00 0.00 0.00 66 1013.0
20260505193046 62 341 6.0 12.0 0.00 0.00 0.00 65 1013.1
20260505192542 63 256 5.0 10.0 0.00 0.00 0.00 65 1013.0
20260505192037 62 310 5.0 10.0 0.00 0.00 0.00 66 1013.0
20260505191548 62 341 5.0 11.0 0.00 0.00 0.00 67 1013.0
20260505191035 62 245 6.0 12.0 0.00 0.00 0.00 66 1013.2
20260505190534 62 247 7.0 12.0 0.00 0.00 0.00 67 1013.0
20260505190037 61 279 4.0 12.0 0.00 0.00 0.00 67 1013.1
20260505185535 61 332 7.0 12.0 0.00 0.00 0.00 66 1013.0
20260505185033 61 335 5.0 11.0 0.00 0.00 0.00 67 1013.0
20260505184533 61 315 5.0 11.0 0.00 0.00 0.00 66 1012.9
20260505184034 61 328 5.0 11.0 0.00 0.00 0.00 66 1012.9
20260505183535 61 249 4.0 10.0 0.00 0.00 0.00 67 1012.9
20260505183047 61 330 2.0 11.0 0.00 0.00 0.00 69 1013.0
20260505182533 61 29 4.0 13.0 0.00 0.00 0.00 68 1013.0
20260505182031 61 52 3.0 13.0 0.00 0.00 0.00 70 1013.0
20260505181531 61 336 5.0 13.0 0.00 0.00 0.00 68 1013.0
20260505181032 61 318 3.0 11.0 0.00 0.00 0.00 71 1012.9
20260505180528 60 258 5.0 11.0 0.00 0.00 0.00 71 1012.8
20260505180035 60 354 4.0 11.0 0.00 0.00 0.00 71 1012.8
20260505175526 60 327 4.0 11.0 0.00 0.00 0.00 72 1012.8
20260505175025 59 295 3.0 10.0 0.00 0.00 0.00 73 1012.7
20260505174531 59 291 3.0 10.0 0.00 0.00 0.00 74 1012.8
20260505174023 59 314 3.0 9.0 0.00 0.00 0.00 74 1012.8
20260505173521 59 322 3.0 10.0 0.00 0.00 0.00 74 1012.6
20260505173033 59 335 2.0 10.0 0.00 0.00 0.00 75 1012.6
20260505172519 58 339 4.0 10.0 0.00 0.00 0.00 75 1012.5
20260505172025 58 349 4.0 12.0 0.00 0.00 0.00 76 1012.5
20260505171527 58 324 5.0 11.0 0.00 0.00 0.00 76 1012.5
20260505171017 58 278 2.0 10.0 0.00 0.00 0.00 77 1012.5
20260505170519 58 332 3.0 10.0 0.00 0.00 0.00 77 1012.6
20260505170017 58 289 4.0 8.0 0.00 0.00 0.00 77 1012.7
20260505165516 58 330 2.0 8.0 0.00 0.00 0.00 78 1012.6
20260505165013 58 285 3.0 9.0 0.00 0.00 0.00 78 1012.5
20260505164528 58 302 5.0 10.0 0.00 0.00 0.00 78 1012.5
20260505164012 58 297 5.0 10.0 0.00 0.00 0.00 79 1012.5
20260505163512 57 272 4.0 9.0 0.00 0.00 0.00 79 1012.5
20260505163016 57 337 4.0 9.0 0.00 0.00 0.00 79 1012.5
20260505162511 57 331 2.0 5.0 0.00 0.00 0.00 80 1012.5
20260505162011 57 262 2.0 8.0 0.00 0.00 0.00 81 1012.4
20260505161511 56 342 3.0 10.0 0.00 0.00 0.00 80 1012.5
20260505161011 56 295 4.0 10.0 0.00 0.00 0.00 81 1012.4
20260505160510 56 317 5.0 10.0 0.00 0.00 0.00 81 1012.3
20260505153003 55 293 3.0 6.0 0.00 0.00 0.00 84 1012.3
20260505152503 55 316 2.0 6.0 0.00 0.00 0.00 84 1012.3
20260505152004 55 4 1.0 4.0 0.00 0.00 0.00 84 1012.2
20260505151502 55 253 0.0 5.0 0.00 0.00 0.00 85 1012.2
20260505151001 54 331 0.0 5.0 0.00 0.00 0.00 85 1012.1
20260505150601 54 322 2.0 5.0 0.00 0.00 0.00 85 1012.0
20260505150116 54 324 2.0 6.0 0.00 0.00 0.00 85 1012.1
20260505140552 54 320 2.0 6.0 0.00 0.00 0.00 87 1011.8
20260505140104 54 318 3.0 6.0 0.00 0.00 0.00 87 1011.8
20260505124545 53 314 0.0 3.0 0.00 0.00 0.00 87 1011.4
20260505124045 53 335 1.0 3.0 0.00 0.00 0.00 87 1011.3
20260505123544 53 298 1.0 3.0 0.00 0.00 0.00 87 1011.3
20260505123105 53 311 1.0 4.0 0.00 0.00 0.00 87 1011.2
20260505122544 53 316 2.0 4.0 0.00 0.00 0.00 87 1011.2
20260505122043 53 299 2.0 4.0 0.00 0.00 0.00 87 1011.2
20260505121543 53 324 1.0 5.0 0.00 0.00 0.00 87 1011.3
20260505121049 53 294 1.0 5.0 0.00 0.00 0.00 87 1011.2
20260505120544 53 304 2.0 5.0 0.00 0.00 0.00 87 1011.2
20260505120049 53 320 2.0 6.0 0.00 0.00 0.00 87 1011.3
20260505115542 53 302 3.0 9.0 0.00 0.00 0.00 87 1011.3
20260505115042 53 359 4.0 9.0 0.00 0.00 0.00 87 1011.3
20260505114552 53 316 2.0 9.0 0.00 0.00 0.00 87 1011.2
20260505114041 53 335 3.0 9.0 0.00 0.00 0.00 87 1011.3
20260505113540 53 316 2.0 8.0 0.00 0.00 0.00 87 1011.3
20260505113042 53 303 4.0 8.0 0.00 0.00 0.00 87 1011.4
20260505112539 53 354 4.0 8.0 0.00 0.00 0.00 87 1011.3
20260505112039 53 330 3.0 8.0 0.00 0.00 0.00 87 1011.4
20260505111539 53 293 3.0 10.0 0.00 0.00 0.00 87 1011.3
20260505111039 53 349 5.0 10.0 0.00 0.00 0.00 87 1011.4
20260505110537 53 341 4.0 8.0 0.00 0.00 0.00 87 1011.4
20260505102031 53 319 3.0 9.0 0.00 0.00 0.00 85 1011.5
20260505101537 53 308 4.0 9.0 0.00 0.00 0.00 85 1011.4
20260505101030 53 324 3.0 8.0 0.00 0.00 0.00 85 1011.4
20260505100531 53 329 4.0 8.0 0.00 0.00 0.00 85 1011.5
20260505100033 53 330 3.0 10.0 0.00 0.00 0.00 85 1011.6
20260505095529 53 278 4.0 10.0 0.00 0.00 0.00 85 1011.6
20260505095030 53 349 3.0 11.0 0.00 0.00 0.00 84 1011.7
20260505094529 53 316 4.0 11.0 0.00 0.00 0.00 84 1011.6
20260505094028 54 322 5.0 9.0 0.00 0.00 0.00 84 1011.6
20260505093526 54 330 3.0 9.0 0.00 0.00 0.00 84 1011.7
20260505093027 54 326 4.0 8.0 0.00 0.00 0.00 83 1011.7
20260505092525 54 331 3.0 9.0 0.00 0.00 0.00 83 1011.7
20260505092024 54 348 5.0 10.0 0.00 0.00 0.00 82 1011.7
20260505091530 54 310 4.0 10.0 0.00 0.00 0.00 82 1011.8
20260505091022 54 304 3.0 9.0 0.00 0.00 0.00 82 1011.8
20260505090521 54 309 3.0 10.0 0.00 0.00 0.00 81 1011.8
20260505090037 54 288 5.0 11.0 0.00 0.00 0.00 81 1011.7
20260505085521 54 337 4.0 12.0 0.00 0.00 0.00 80 1011.7
20260505085020 55 256 6.0 12.0 0.00 0.00 0.00 79 1011.8
20260505084523 55 280 5.0 12.0 0.00 0.00 0.00 79 1011.8
20260505084018 55 326 6.0 12.0 0.00 0.00 0.00 78 1011.8
20260505083518 55 21 5.0 10.0 0.00 0.00 0.00 78 1011.8
20260505083017 55 316 4.0 11.0 0.00 0.00 0.00 78 1011.7
20260505082520 55 354 6.0 12.0 0.00 0.00 0.00 78 1011.7
20260505082015 56 4 6.0 11.0 0.00 0.00 0.00 78 1011.7
20260505081516 56 344 4.0 9.0 0.00 0.00 0.00 79 1011.7
20260505081014 56 347 3.0 9.0 0.00 0.00 0.00 79 1011.7
20260505080512 56 345 4.0 9.0 0.00 0.00 0.00 79 1011.7
20260505080033 56 354 3.0 11.0 0.00 0.00 0.00 80 1011.7
20260505075512 56 322 4.0 10.0 0.00 0.00 0.00 80 1011.7
20260505075011 56 296 4.0 8.0 0.00 0.00 0.00 81 1011.6
20260505074510 57 323 3.0 9.0 0.00 0.00 0.00 81 1011.6
20260505074011 57 348 5.0 9.0 0.00 0.00 0.00 81 1011.6
20260505073509 57 339 3.0 11.0 0.00 0.00 0.00 81 1011.7
20260505073013 57 316 5.0 11.0 0.00 0.00 0.00 80 1011.6
20260505072507 57 326 2.0 10.0 0.00 0.00 0.00 80 1011.7
20260505072008 57 344 4.0 10.0 0.00 0.00 0.00 79 1011.7
20260505071508 57 293 3.0 9.0 0.00 0.00 0.00 79 1011.7
20260505071006 58 285 4.0 9.0 0.00 0.00 0.00 79 1011.7
20260505070505 58 260 3.0 6.0 0.00 0.00 0.00 79 1011.7
20260505070005 58 316 2.0 8.0 0.00 0.00 0.00 79 1011.6
20260505065505 58 326 3.0 8.0 0.00 0.00 0.00 79 1011.6
20260505065004 58 316 4.0 8.0 0.00 0.00 0.00 79 1011.6
20260505064504 58 359 3.0 9.0 0.00 0.00 0.00 79 1011.4
20260505064007 58 321 3.0 9.0 0.00 0.00 0.00 79 1011.5
20260505063508 58 301 3.0 9.0 0.00 0.00 0.00 80 1011.4
20260505063005 58 328 2.0 8.0 0.00 0.00 0.00 79 1011.4
20260505062504 58 274 4.0 8.0 0.00 0.00 0.00 79 1011.3
20260505062004 58 335 2.0 7.0 0.00 0.00 0.00 79 1011.4
20260505061509 58 293 2.0 9.0 0.00 0.00 0.00 79 1011.4
20260505061003 58 283 3.0 9.0 0.00 0.00 0.00 78 1011.4
20260505060504 58 284 3.0 6.0 0.00 0.00 0.00 78 1011.5
20260505060003 58 313 3.0 8.0 0.00 0.00 0.00 77 1011.5
20260505055502 58 354 2.0 8.0 0.00 0.00 0.00 76 1011.5
20260505055003 59 340 4.0 8.0 0.00 0.00 0.00 76 1011.6
20260505054502 59 345 4.0 6.0 0.00 0.00 0.00 75 1011.6
20260505054001 59 324 3.0 6.0 0.00 0.00 0.00 75 1011.7
20260505053501 59 346 3.0 8.0 0.00 0.00 0.00 75 1011.7
20260505053001 59 324 2.0 8.0 0.00 0.00 0.00 75 1011.7
20260505052502 59 260 2.0 7.0 0.00 0.00 0.00 75 1011.7
20260505052001 59 303 2.0 6.0 0.00 0.00 0.00 75 1011.7
20260505051501 59 322 3.0 6.0 0.00 0.00 0.00 75 1011.7
20260505051002 59 295 3.0 7.0 0.00 0.00 0.00 75 1011.8
20260505050600 59 274 2.0 5.0 0.00 0.00 0.00 75 1011.8
20260505050128 59 291 1.0 7.0 0.00 0.00 0.00 75 1011.8
20260505041610 59 260 3.0 8.0 0.00 0.00 0.00 74 1011.4
20260505041059 59 341 2.0 8.0 0.00 0.00 0.00 73 1011.4
20260505040601 59 257 1.0 5.0 0.00 0.00 0.00 73 1011.3
20260505035606 59 310 1.0 6.0 0.00 0.00 0.00 73 1011.3
20260505035058 59 287 2.0 6.0 0.00 0.00 0.00 72 1011.3
20260505034558 59 322 2.0 6.0 0.00 0.00 0.00 72 1011.2
20260505034058 59 332 2.0 8.0 0.00 0.00 0.00 72 1011.0
20260505033558 59 326 2.0 8.0 0.00 0.00 0.00 71 1010.9
20260505033059 59 276 3.0 8.0 0.00 0.00 0.00 71 1010.9
20260505032558 59 262 2.0 8.0 0.00 0.00 0.00 71 1010.8
20260505032102 59 331 3.0 8.0 0.00 0.00 0.00 70 1010.8
20260505031600 59 307 3.0 7.0 0.00 0.00 0.00 70 1010.8
20260505031058 59 267 3.0 7.0 0.00 0.00 0.00 69 1010.9
20260505030557 59 293 1.0 4.0 0.00 0.00 0.00 68 1010.9
20260505030057 59 289 2.0 5.0 0.00 0.00 0.00 68 1010.9
20260505025558 59 303 2.0 7.0 0.00 0.00 0.00 67 1011.0
20260505025057 59 276 3.0 7.0 0.00 0.00 0.00 67 1010.9
20260505024557 59 311 1.0 3.0 0.00 0.00 0.00 67 1010.9
20260505024056 59 331 1.0 5.0 0.00 0.00 0.00 67 1011.0
20260505023556 59 315 1.0 4.0 0.00 0.00 0.00 67 1011.0
20260505023057 59 314 1.0 5.0 0.00 0.00 0.00 67 1011.1
20260505022556 59 299 3.0 6.0 0.00 0.00 0.00 67 1011.1
20260505022057 59 303 2.0 6.0 0.00 0.00 0.00 68 1011.0
20260505021557 59 282 3.0 7.0 0.00 0.00 0.00 68 1011.1
20260505021056 60 288 2.0 6.0 0.00 0.00 0.00 69 1011.1
20260505020555 60 335 4.0 6.0 0.00 0.00 0.00 68 1011.1
20260505020055 60 322 2.0 4.0 0.00 0.00 0.00 68 1011.0
20260505015555 60 324 2.0 4.0 0.00 0.00 0.00 67 1010.9
20260505015055 60 266 1.0 6.0 0.00 0.00 0.00 69 1011.0
20260505014611 60 324 1.0 5.0 0.00 0.00 0.00 68 1011.0
20260505014055 60 312 1.0 5.0 0.00 0.00 0.00 69 1011.0
20260505013555 61 335 2.0 5.0 0.00 0.00 0.00 68 1011.1
20260505013055 61 43 2.0 5.0 0.00 0.00 0.00 67 1011.0
20260505012555 61 332 2.0 6.0 0.00 0.00 0.00 65 1011.1
20260505012055 61 336 3.0 6.0 0.00 0.00 0.00 65 1011.1
20260505011603 61 350 2.0 6.0 0.00 0.00 0.00 65 1011.1
20260505011055 62 345 1.0 5.0 0.00 0.00 0.00 65 1011.1
20260505010554 62 24 2.0 5.0 0.00 0.00 0.00 64 1011.1
20260505010056 62 33 1.0 4.0 0.00 0.00 0.00 65 1011.2
20260505005554 62 354 1.0 4.0 0.00 0.00 0.00 64 1011.3
20260505005054 62 81 1.0 4.0 0.00 0.00 0.00 64 1011.3
20260505004554 62 15 1.0 4.0 0.00 0.00 0.00 64 1011.3
20260505004053 62 4 1.0 5.0 0.00 0.00 0.00 64 1011.4
20260505003556 62 177 1.0 5.0 0.00 0.00 0.00 63 1011.4
20260505003054 62 4 1.0 3.0 0.00 0.00 0.00 63 1011.5
20260505002556 62 336 1.0 5.0 0.00 0.00 0.00 63 1011.6
20260505002053 62 316 2.0 6.0 0.00 0.00 0.00 61 1011.6
20260505001611 62 334 2.0 6.0 0.00 0.00 0.00 61 1011.6
20260505001055 62 350 3.0 8.0 0.00 0.00 0.00 59 1011.6
20260505000552 63 19 2.0 8.0 0.00 0.00 0.00 60 1011.6
20260505000117 62 50 1.0 5.0 0.00 0.00 0.00 62 1011.6
20260504235551 62 14 2.0 9.0 0.00 0.00 0.00 61 1011.6
20260504235052 62 4 2.0 10.0 0.00 0.00 0.00 62 1011.6
20260504234609 62 354 4.0 10.0 0.00 0.00 0.00 60 1011.7
20260504234051 62 322 1.0 10.0 0.00 0.00 0.00 63 1011.7
20260504233554 62 305 3.0 10.0 0.00 0.00 0.00 63 1011.6
20260504233103 62 349 2.0 8.0 0.00 0.00 0.00 63 1011.6
20260504232551 62 359 3.0 8.0 0.00 0.00 0.00 63 1011.6
20260504232051 63 26 3.0 8.0 0.00 0.00 0.00 63 1011.6
20260504231551 63 350 2.0 6.0 0.00 0.00 0.00 61 1011.6
20260504231050 64 359 2.0 4.0 0.00 0.00 0.00 62 1011.6
20260504230549 63 77 1.0 5.0 0.00 0.00 0.00 63 1011.5
20260504230048 63 166 2.0 5.0 0.00 0.00 0.00 63 1011.5
20260504225547 62 75 2.0 6.0 0.00 0.00 0.00 63 1011.6
20260504225050 62 68 2.0 6.0 0.00 0.00 0.00 64 1011.7
20260504224605 62 354 3.0 6.0 0.00 0.00 0.00 63 1011.7
20260504224047 63 15 2.0 4.0 0.00 0.00 0.00 63 1011.7